Location: Barrio Las Umbrías
(40.4173°N, 4.8685°W)
Time: 12:50:37
(UTC+00:00)

Cosmos 2016 Rocket - Pass Details

Date: 17 August 2022
Orbit: 947 x 999 km, 83.0° (Epoch: 27 September)

Event Time Altitude Azimuth Distance (km) Brightness Sun altitude
Rises 21:10:15 0° 352° (N) 3,699 7.8 -20.2°
Reaches altitude 10° 21:12:46 10° 352° (N) 2,753 7.0 -20.5°
Maximum altitude 21:19:06 86° 266° (W) 1,002 4.0 -21.5°
Enters shadow 21:22:38 29° 178° (S) 1,750 4.9 -22.0°
